"Pseudo-MPEC" for ZTF01sW

Created 2018 Dec 12 11:18:09 UT using Find_Orb

Click here for an explanation of pseudo-MPECs

 
 Astrometry: 
     ZTF01sW  C2018 12 05.25278305 48 45.27 +16 52 33.2          16.77RUNEOCPI41
     ZTF01sW  C2018 12 05.25313005 48 51.31 +16 53 33.5          16.77RUNEOCPI41
     ZTF01sW  C2018 12 05.29140105 59 59.41 +18 40 22.3          17.07gUNEOCPI41
     ZTF01sW  C2018 12 05.29174806 00 05.30 +18 41 17.9          17.07gUNEOCPI41

Station data:
(I41) Palomar Mountain--ZTF  (N33.357340 W116.859780)  US/California. 1.2-m
   f/2.44 Oschin Schmidt + CCD.

Orbital elements:  ZTF01sW
   Perigee 2018 Dec 6.147892 +/- 35.2 TT =  3:32:57 (JD 2458458.647892)
Epoch 2018 Dec  5.0 TT = JDT 2458457.5                        AutoNEOCP
M 212.48393540 +/- 36               (J2000 equator)
n 128.51045730 +/- 0.42             Peri.  174.56125 +/- 32
a 83941.7192 +/- 5.69e+7            Node    54.75269 +/- 44
e   0.2818936 +/- 0.241             Incl.   32.89436 +/- 3.1
P4033.84m/2.801d           H 32.2   G  0.15   U 12.2  SR
q 60279.0799 +/- 1.35e+7    Q 107604.358 +/- 1.19e+9
From 4 observations 2018 Dec. 5 (56.1 min); mean residual 1".18
Residuals in arcseconds: 
181205 I41  .41-  .98-    181205 I41  1.8+  1.1+    
181205 I41  .40+  .98+    181205 I41  1.8-  1.1-    

Ephemerides (geocentric):
Date (UTC) HH   RA              Dec         delta   r     elong  mag " sig PA
---- -- -- --  -------------   -----------  ------ ------ -----  --- ---- ---
2018 12 12 11  23 41 09.043   -29 08 07.58   90647 .98450  83.9 19.5 116d 177
2018 12 12 12  23 59 55.274   -27 51 42.89   92551 .98454  88.2 19.4 117d 177
2018 12 12 13  00 17 31.100   -26 29 32.62   94357 .98458  92.2 19.3 123d 176
2018 12 12 14  00 34 03.739   -25 02 53.83   96057 .98462  96.2 19.2 126d 176
2018 12 12 15  00 49 40.095   -23 32 47.69   97649 .98466 100.0 19.1 128d 176
2018 12 12 16  01 04 26.621   -22 00 02.24   99127 .98470 103.6 19.0 131d 176
2018 12 12 17  01 18 29.265   -20 25 14.91  100490 .98474 107.2 18.9 132d 176
2018 12 12 18  01 31 53.462   -18 48 54.55  101735 .98477 110.7 18.8 133d 175
2018 12 12 19  01 44 44.157   -17 11 23.17  102859 .98481 114.1 18.7 134d 175
2018 12 12 20  01 57 05.846   -15 32 57.28  103862 .98484 117.4 18.6 135d 175
2018 12 12 21  02 09 02.624   -13 53 49.07  104743 .98488 120.6 18.5 136d 175
2018 12 12 22  02 20 38.235   -12 14 07.24  105500 .98491 123.9 18.5 136d 175
2018 12 12 23  02 31 56.126   -10 33 57.80  106133 .98494 127.0 18.4 136d 175
2018 12 13 00  02 42 59.492   -08 53 24.59  106641 .98496 130.1 18.3 132d 175
2018 12 13 01  02 53 51.327   -07 12 29.79  107024 .98499 133.2 18.2 129d 175
2018 12 13 02  03 04 34.466   -05 31 14.27  107282 .98501 136.3 18.2 130d 175
2018 12 13 03  03 15 11.627   -03 49 37.97  107414 .98503 139.4 18.1 126d 175
2018 12 13 04  03 25 45.454   -02 07 40.11  107420 .98505 142.4 18.0 120d 176
2018 12 13 05  03 36 18.550   -00 25 19.48  107301 .98507 145.5 17.9 120d 176
2018 12 13 06  03 46 53.525   +01 17 25.35  107057 .98509 148.5 17.8  96d 176
2018 12 13 07  03 57 33.029   +03 00 35.78  106687 .98510 151.6 17.7  96d 176
2018 12 13 08  04 08 19.792   +04 44 12.96  106192 .98511 154.6 17.6  95d 177
2018 12 13 09  04 19 16.676   +06 28 17.49  105572 .98511 157.7 17.5  95d 177
2018 12 13 10  04 30 26.711   +08 12 49.16  104829 .98512 160.7 17.4  84d 178
2018 12 13 11  04 41 53.151   +09 57 46.53  103962 .98512 163.8 17.3  75d 178
2018 12 13 12  04 53 39.532   +11 43 06.51  102972 .98512 166.8 17.2  70d   0
2018 12 13 13  05 05 49.731   +13 28 43.75  101862 .98511 169.6 17.0  69d   0
2018 12 13 14  05 18 28.032   +15 14 29.89  100631 .98510 172.1 16.9  68d   0
2018 12 13 15  05 31 39.206   +17 00 12.69   99283 .98509 173.5 16.8  50d  11
2018 12 13 16  05 45 28.583   +18 45 34.74   97818 .98508 173.0 16.8  49d  11
2018 12 13 17  06 00 02.135   +20 30 12.00   96241 .98506 170.9 16.8  49d  12
2018 12 13 18  06 15 26.548   +22 13 31.79   94554 .98504 167.8 16.9  48d  12
2018 12 13 19  06 31 49.274   +23 54 50.33   92762 .98501 164.2 17.0  47d  13
2018 12 13 20  06 49 18.542   +25 33 09.65   90871 .98498 160.2 17.1  46d  13
2018 12 13 21  07 08 03.301   +27 07 13.89   88887 .98495 156.0 17.2  45d  14
2018 12 13 22  07 28 13.026   +28 35 24.83   86818 .98491 151.5 17.3  44d  14
2018 12 13 23  07 49 57.349   +29 55 37.10   84674 .98487 146.7 17.4  44d  15
2018 12 14 00  08 13 25.411   +31 05 13.23   82469 .98482 141.7 17.4  43d  15
2018 12 14 01  08 38 44.863   +32 00 59.67   80216 .98477 136.3 17.5  42d  15
2018 12 14 02  09 06 00.514   +32 39 05.26   77935 .98472 130.6 17.6  42d  16
2018 12 14 03  09 35 12.689   +32 55 04.13   75648 .98466 124.6 17.7  41d  16
2018 12 14 04  10 06 15.628   +32 44 05.84   73382 .98460 118.1 17.8  41d  16
2018 12 14 05  10 38 56.452   +32 01 14.59   71168 .98454 111.3 18.0  41d  16
2018 12 14 06  11 12 55.339   +30 41 57.98   69043 .98448 104.0 18.2  42d  16
2018 12 14 07  11 47 47.372   +28 42 42.98   67049 .98441  96.3 18.4  43d  15
2018 12 14 08  12 23 05.900   +26 01 33.59   65231 .98434  88.1 18.6  43d  15
2018 12 14 09  12 58 26.549   +22 38 43.58   63638 .98427  79.4 19.0  45d  14
2018 12 14 10  13 33 30.674   +18 36 57.80   62320 .98421  70.4 19.4  46d  14